Terminal Aerodrome Forecast
Issued by NWS Wilmington, OH

Current Version | Previous Version | Graphics & Text | Print | Product List | Glossary On
Versions: 1 2 3 4 5 6 7 8 9 10 11 12 13 14 15 16 17 18 19
000
FTUS41 KILN 141007 AAA
TAFCMH
TAF AMD
KCMH 141007Z 1410/1506 00000KT 5SM BR FEW080
     FM141300 16004KT P6SM SCT100
     FM141600 18008KT P6SM SCT080
     FM150500 19010KT P6SM SCT040 BKN080=

USA.gov is the U.S. government's official web portal to all federal, state and local government web resources and services.